Weather History for Idaho Falls, ID

Change the Weather History Date:

Thursday, July 25, 2013

  Actual Average Record
Temperature  
Mean Temperature 70 °F 69 °F  
Max Temperature 91 °F 88 °F 98 °F (1954)
Min Temperature 48 °F 51 °F 41 °F (2000)
Degree Days  
Heating Degree Days 0 0  
Month to date heating degree days 0 25  
Since 1 June heating degree days 100 178  
Since 1 July heating degree days 0 25  
Cooling Degree Days 5 5  
Month to date cooling degree days 185 98  
Year to date cooling degree days 258 130  
Since 1 June cooling degree days 254 128  
Growing Degree Days 20 (Base 50)    
Moisture  
Dew Point 44 °F    
Average Humidity 48    
Maximum Humidity 86    
Minimum Humidity 10    
Precipitation  
Precipitation 0.00 in 0.02 in 0.17 in (1986)
Month to date precipitation 0.30 0.41  
Year to date precipitation 2.24 6.35  
Sea Level Pressure  
Sea Level Pressure 30.01 in    
Wind  
Wind Speed 4 mph (WNW)    
Max Wind Speed 12 mph    
Max Gust Speed 16 mph    
Visibility 10 miles    
Events      
T = Trace of Precipitation, MM = Missing Value Source: NWS Daily Summary

Daily Weather History Graph

Daily Weather History Graph

Search for Another Location

Airport:

Trip Planner

Search our weather history database for the weather conditions in past years. The results will help you decide how hot, cold, wet, or windy it might be!

Date:

Astronomy

Jul. 25, 2013 Rise Set
Actual Time 6:10 AM MDT 8:58 PM MDT
Civil Twilight 5:37 AM MDT 9:31 PM MDT
Nautical Twilight 4:55 AM MDT 10:13 PM MDT
Astronomical Twilight 4:06 AM MDT 11:02 PM MDT
Moon 10:31 PM MDT (7/25) 9:52 AM MDT (7/25)
Length of Visible Light 15h 54m
Length of Day
14h 47m
Waning Gibbous, 88% of the Moon is Illuminated
Jul 25
Waning Gibbous
Jul 29
Last Quarter
Aug 6
New
Aug 14
First Quarter
Aug 20
Full

Hourly Weather History & Observations

Time (MDT) Temp. Dew Point Humidity Pressure Visibility Wind Dir Wind Speed Gust Speed Precip Events Conditions
12:53 AM 59.0 °F 46.9 °F 64% 29.93 in 10.0 mi Calm Calm - N/A   Clear
1:53 AM 57.9 °F 46.9 °F 67% 29.93 in 10.0 mi Calm Calm - N/A   Clear
2:53 AM 53.1 °F 46.0 °F 77% 29.95 in 10.0 mi NNW 4.6 mph - N/A   Clear
3:53 AM 53.1 °F 44.1 °F 71% 29.95 in 10.0 mi Calm Calm - N/A   Clear
4:53 AM 48.9 °F 43.0 °F 80% 29.98 in 10.0 mi North 3.5 mph - N/A   Clear
5:53 AM 48.9 °F 44.1 °F 83% 30.00 in 10.0 mi North 5.8 mph - N/A   Clear
6:53 AM 51.1 °F 44.1 °F 77% 30.04 in 10.0 mi NE 3.5 mph - N/A   Clear
7:53 AM 54.0 °F 46.9 °F 77% 30.04 in 10.0 mi NNW 5.8 mph - N/A   Scattered Clouds
8:53 AM 60.1 °F 50.0 °F 69% 30.05 in 10.0 mi North 3.5 mph - N/A   Scattered Clouds
9:53 AM 64.9 °F 48.9 °F 56% 30.05 in 10.0 mi Variable 3.5 mph - N/A   Clear
10:53 AM 71.1 °F 46.9 °F 42% 30.07 in 10.0 mi Calm Calm - N/A   Clear
11:53 AM 72.0 °F 51.1 °F 48% 30.07 in 10.0 mi WNW 5.8 mph - N/A   Clear
12:53 PM 78.1 °F 46.0 °F 32% 30.05 in 10.0 mi West 4.6 mph - N/A   Clear
1:53 PM 84.0 °F 44.1 °F 25% 30.04 in 10.0 mi West 6.9 mph - N/A   Partly Cloudy
2:53 PM 88.0 °F 39.0 °F 18% 30.02 in 10.0 mi West 6.9 mph - N/A   Clear
3:53 PM 89.1 °F 37.9 °F 16% 30.01 in 10.0 mi WSW 5.8 mph - N/A   Partly Cloudy
4:53 PM 90.0 °F 37.9 °F 16% 30.00 in 10.0 mi SSW 8.1 mph - N/A   Partly Cloudy
5:53 PM 91.0 °F 37.0 °F 15% 29.99 in 10.0 mi SW 6.9 mph - N/A   Partly Cloudy
6:53 PM 91.0 °F 28.0 °F 10% 29.98 in 10.0 mi Calm Calm - N/A   Clear
7:53 PM 88.0 °F 37.0 °F 16% 29.98 in 10.0 mi SSW 10.4 mph - N/A   Clear
8:53 PM 80.1 °F 46.9 °F 31% 29.99 in 10.0 mi SSW 5.8 mph - N/A   Clear
9:53 PM 68.0 °F 53.1 °F 59% 30.03 in 10.0 mi Calm Calm - N/A   Clear
10:53 PM 73.9 °F 48.0 °F 40% 30.02 in 10.0 mi ESE 3.5 mph - N/A   Clear
11:53 PM 68.0 °F 50.0 °F 52% 30.04 in 10.0 mi Calm Calm - N/A   Clear